Vancouver, WA
on Wednesday, February 13, 2013

Wednesday
Previous Day Next Day
Daily Summary
 ActualAverageRecord
Temperature
Mean Temperature °F 43°F  
Max Temperature 53°F 51°F 61°F (1898)
Min Temperature 39°F 35°F 15°F (1990)
Degree Days
Heating Degree Days 19    
Month to date heating degree days 283  
Since 1 July heating degree days 2706  
Cooling Degree Days 0    
Month to date cooling degree days 0  
Year to date cooling degree days 0  
Moisture
Dew Point 42°F   
Average Humidity 76    
Maximum Humidity 93    
Minimum Humidity 59    
Precipitation
Precipitation 0.02 in 0.14 in 1.41 in (1901)
Month to date precipitation 0.20 2.15  
Year to date precipitation 3.60 7.65  
Snow
Snow 0.00 in in in ()
Month to date snowfall 0.0  
Snow Depth 0.00 in   
Wind
Wind Speed 2 mph   
Max Wind Speed 8 mph   
Max Gust Speed 13 mph   
Visibility 8 miles   
Events Rain   

Key: T is trace of precipitation, MM is missing value
Source: NWS Daily Summary
Time(PST)TemperatureDew PointHumidity Pressure Visibility Wind DirectionWind SpeedGust SpeedPrecipitationEvents Conditions
12:53 AM 50.0°F 42.1°F 74% 30.44 in 10.0 miles Calm Calm - N/A   Overcast
1:53 AM 48.9°F 42.1°F 77% 30.44 in 10.0 miles SSW 4.6 mph - N/A   Overcast
2:53 AM 48.9°F 43.0°F 80% 30.44 in 10.0 miles South 5.8 mph - N/A   Overcast
3:53 AM 48.0°F 43.0°F 83% 30.43 in 10.0 miles ESE 3.5 mph - N/A   Overcast
4:53 AM 48.9°F 43.0°F 80% 30.42 in 10.0 miles SW 4.6 mph - N/A   Overcast
5:53 AM 48.0°F 43.0°F 83% 30.43 in 10.0 miles Calm Calm - N/A   Overcast
6:53 AM 48.0°F 43.0°F 83% 30.43 in 10.0 miles Variable 3.5 mph - N/A   Overcast
7:53 AM 48.0°F 43.0°F 83% 30.44 in 10.0 miles WSW 4.6 mph - N/A   Overcast
8:38 AM 48.2°F 44.6°F 87% 30.45 in 10.0 miles WNW 3.5 mph - N/A   Overcast
8:53 AM 48.0°F 44.1°F 86% 30.46 in 8.0 miles NW 5.8 mph - N/A   Overcast
9:03 AM 46.4°F 44.6°F 93% 30.46 in 1.8 miles NNW 5.8 mph - 0.00 in Rain Light Rain
9:19 AM 46.4°F 44.6°F 93% 30.47 in 1.2 miles Variable 4.6 mph - 0.01 in Rain Light Rain
9:33 AM 46.4°F 44.6°F 93% 30.47 in 2.0 miles NNW 3.5 mph - 0.01 in Rain Light Rain
9:49 AM 46.4°F 44.6°F 93% 30.48 in 5.0 miles Calm Calm - 0.01 in   Overcast
9:53 AM 46.9°F 44.1°F 90% 30.48 in 6.0 miles Calm Calm - 0.01 in   Overcast
10:22 AM 46.4°F 42.8°F 87% 30.48 in 2.0 miles NW 3.5 mph - 0.00 in Rain Light Rain
10:35 AM 46.4°F 42.8°F 87% 30.48 in 1.5 miles NW 3.5 mph - 0.01 in Rain Light Rain
10:45 AM 46.4°F 42.8°F 87% 30.48 in 3.0 miles Calm Calm - 0.01 in Rain Light Rain
10:53 AM 46.9°F 43.0°F 86% 30.48 in 5.0 miles North 3.5 mph - 0.01 in   Overcast
11:53 AM 48.0°F 42.1°F 80% 30.48 in 10.0 miles NNW 4.6 mph - N/A   Overcast
12:53 PM 48.9°F 43.0°F 80% 30.47 in 10.0 miles Calm Calm - N/A   Overcast
1:53 PM 50.0°F 42.1°F 74% 30.46 in 10.0 miles North 4.6 mph - N/A   Overcast
2:53 PM 52.0°F 42.1°F 69% 30.45 in 10.0 miles WNW 5.8 mph - N/A   Mostly Cloudy
3:07 PM 51.8°F 39.2°F 62% 30.44 in 10.0 miles Variable 3.5 mph - N/A   Overcast
3:53 PM 51.1°F 37.9°F 61% 30.45 in 10.0 miles WNW 3.5 mph - N/A   Overcast
4:53 PM 51.1°F 37.0°F 59% 30.45 in 10.0 miles Calm Calm - N/A   Overcast
5:53 PM 50.0°F 37.9°F 63% 30.46 in 10.0 miles Calm Calm - N/A   Overcast
6:53 PM 50.0°F 37.9°F 63% 30.47 in 10.0 miles Calm Calm - N/A   Mostly Cloudy
7:53 PM 48.0°F 37.9°F 68% 30.48 in 10.0 miles Calm Calm - N/A   Overcast
8:53 PM 46.9°F 39.0°F 74% 30.50 in 10.0 miles Calm Calm - N/A   Overcast
9:53 PM 46.0°F 37.9°F 73% 30.52 in 10.0 miles Calm Calm - N/A   Mostly Cloudy
10:53 PM 43.0°F 37.9°F 82% 30.52 in 10.0 miles Calm Calm - N/A   Overcast
11:53 PM 41.0°F 37.9°F 89% 30.52 in 10.0 miles Calm Calm - N/A   Overcast
Moon Phase
Feb. 13 Feb. 17 Feb. 25 Mar. 04 Mar. 11
Sunrise:07:15 AM (PST) Moon Rise:08:33 AM (PST)2/13
Sunset:05:35 PM (PST) Moon Set:09:59 PM (PST)2/13

Copyright © 2014 The Weather Underground, Inc.